Location: Neuvy Saint Sepulchre
(46.5953°N, 1.8122°E)
Time: 21:14:55
(UTC+01:00)

ISS - Pass Details

Date: 18 March 2023
Orbit: 414 x 422 km, 51.6° (Epoch: 25 March)

Event Time Altitude Azimuth Distance (km) Brightness Sun altitude
Rises 20:10:41 0° 233° (SW) 2,348 0.7 -12.5°
Reaches altitude 10° 20:12:47 10° 230° (SW) 1,487 -0.4 -12.9°
Maximum altitude 20:16:04 62° 149° (SSE) 470 -3.8 -13.4°
Enters shadow 20:17:56 23° 74° (ENE) 925 -2.5 -13.7°
